Weather in Nyköping

Sweden     58°45′33″N   16°59′54″E
temp.,
°C
wind,
m/s
gust,
m/s
humid.,
%
clouds,
%
prec.,
mm/h
press.,
hPa
HPBL,
m
27 february, sat
sat2701:00+3nnw412770 0.0 1025634
04:00+2nw411820 0.0 1026425
07:000nw310830 0.0 1028290
10:00+4nw38690 0.0 1029382
13:00+7wnw37540 0.0 1030810
16:00+7wnw286265 0.0 1029401
19:00+5w4117383 0.0 1028435
22:00+3wnw397934 0.0 1028281
28 february, sun
sun2801:00+1wnw259217 0.0 1029121
04:00+1wnw36923 0.0 1028137
07:00+2wnw37821 0.0 1028145
10:00+7nw37620 0.0 1029240
13:00+9nw25550 0.0 1030463
16:00+8wnw36630 0.0 1029226
19:00+4wnw238133 0.0 103033
22:00+3w228360 0.0 103022
1 march, mon
mon101:00+2sw238747 0.0 102979
04:00+2w310870 0.0 1027256
07:00+2wsw3128415 0.0 1026317
10:00+6wnw4107187 0.0 1025543
13:00+8nw486444 0.0 1026568
16:00+7wnw266958 0.0 1026253
19:00+4wnw238378 0.0 102693
22:00+3w267925 0.0 1027101
2 march, tue
tue201:00+3wnw397313 0.0 1027152
04:00+2nw388219 0.0 1027179
07:00+1wnw238311 0.0 102752
10:00+6nw366726 0.0 1029221
13:00+10nw255621 0.0 1029444
16:00+9wnw226513 0.0 102975
19:00+5wnw12807 0.0 102922
22:00+4nne00810 0.0 102922
3 march, wed
wed301:00+3sw12810 0.0 102822
04:00+2s12820 0.0 102722
07:00+1s22860 0.0 102623
10:00+5sw24760 0.0 1026300
13:00+4wsw358120 0.0 1024528
16:00+3w3683100 0.0 1022636
19:00+3w3783100 0.0 1020647
22:00+2wnw378892 0.0 1020287